AEE0396 LGIR-LGAL

Flight info

Callsign AEE0396
Flight time 1h 0m
Altitude 32000
Route EPALO UM749 MIL UL617 KEA/N0415F310 UG33 LMO
Aircraft A20N/M-SDE2E3FGHIRWXY/LB1

Departure

Time 2026-04-30 21:39
Airport Heraklion International Nikos Kazantzakis Airport (LGIR)

Arrival

Time 2026-04-30 22:39
Airport Alexandroupoli Democritus Airport (LGAL)
Time Latitude Longitude Altitude Speed Heading
2026-04-30 21:25 35.33869 25.17547 91 ft 0 kts 314°
2026-04-30 21:35 35.33870 25.17546 90 ft 1 kts 314°
2026-04-30 21:36 35.33880 25.17533 93 ft 4 kts 314°
2026-04-30 21:36 35.33906 25.17487 93 ft 8 kts 295°
2026-04-30 21:37 35.33934 25.17164 90 ft 17 kts 275°
2026-04-30 21:37 35.33944 25.17038 91 ft 13 kts 276°
2026-04-30 21:37 35.33960 25.16923 93 ft 15 kts 274°
2026-04-30 21:37 35.33967 25.16789 90 ft 17 kts 276°
2026-04-30 21:38 35.34016 25.16674 92 ft 12 kts 326°
2026-04-30 21:38 35.34064 25.16708 91 ft 9 kts 90°
2026-04-30 21:38 35.34064 25.16714 90 ft 0 kts 92°
2026-04-30 21:38 35.34053 25.16874 93 ft 53 kts 95°
2026-04-30 21:39 35.34001 25.17620 91 ft 118 kts 95°
2026-04-30 21:39 35.33899 25.18828 156 ft 160 kts 96°
2026-04-30 21:39 35.34010 25.20184 724 ft 165 kts 74°
2026-04-30 21:39 35.34578 25.21444 1294 ft 175 kts 49°
2026-04-30 21:40 35.35573 25.22326 1947 ft 179 kts 20°
2026-04-30 21:40 35.36791 25.22572 2607 ft 179 kts 354°
2026-04-30 21:40 35.38008 25.22220 3231 ft 187 kts 340°
2026-04-30 21:40 35.39271 25.21649 3852 ft 199 kts 330°
2026-04-30 21:41 35.40286 25.20413 4349 ft 215 kts 301°
2026-04-30 21:41 35.41047 25.18823 5246 ft 220 kts 300°
2026-04-30 21:41 35.41796 25.17100 5867 ft 239 kts 297°
2026-04-30 21:41 35.42746 25.15329 6465 ft 257 kts 310°
2026-04-30 21:42 35.44107 25.13869 7339 ft 263 kts 324°
2026-04-30 21:42 35.45710 25.12749 8280 ft 268 kts 332°
2026-04-30 21:42 35.47436 25.11840 9223 ft 272 kts 336°
2026-04-30 21:42 35.49224 25.11023 10138 ft 276 kts 337°
2026-04-30 21:43 35.51090 25.10202 10656 ft 296 kts 337°
2026-04-30 21:43 35.53102 25.09315 10973 ft 319 kts 337°
2026-04-30 21:43 35.55218 25.08374 11505 ft 330 kts 337°
2026-04-30 21:43 35.57394 25.07404 12354 ft 334 kts 337°
2026-04-30 21:44 35.59587 25.06421 13170 ft 338 kts 337°
2026-04-30 21:44 35.61810 25.05421 13957 ft 342 kts 337°
2026-04-30 21:44 35.64054 25.04411 14682 ft 346 kts 337°
2026-04-30 21:44 35.66328 25.03387 15398 ft 349 kts 337°
2026-04-30 21:45 35.68624 25.02353 16113 ft 353 kts 337°
2026-04-30 21:45 35.70940 25.01309 16822 ft 357 kts 336°
2026-04-30 21:45 35.73284 25.00243 17508 ft 361 kts 336°
2026-04-30 21:45 35.75644 24.99137 18194 ft 364 kts 336°
2026-04-30 21:46 35.78021 24.98012 18796 ft 368 kts 335°
2026-04-30 21:46 35.80425 24.96873 19405 ft 371 kts 336°
2026-04-30 21:46 35.82848 24.95728 20012 ft 374 kts 336°
2026-04-30 21:46 35.85290 24.94576 20608 ft 377 kts 336°
2026-04-30 21:47 35.87749 24.93417 21200 ft 381 kts 336°
2026-04-30 21:47 35.90237 24.92244 21780 ft 384 kts 336°
2026-04-30 21:47 35.92741 24.91063 22368 ft 387 kts 336°
2026-04-30 21:47 35.95263 24.89872 22941 ft 390 kts 336°
2026-04-30 21:48 35.97811 24.88668 23510 ft 393 kts 336°
2026-04-30 21:48 36.00371 24.87458 23983 ft 397 kts 336°
2026-04-30 21:48 36.02963 24.86232 24459 ft 399 kts 336°
2026-04-30 21:48 36.05571 24.84997 24920 ft 402 kts 336°
2026-04-30 21:49 36.08172 24.83765 25370 ft 405 kts 336°
2026-04-30 21:49 36.10813 24.82514 25810 ft 408 kts 336°
2026-04-30 21:49 36.13468 24.81256 26236 ft 411 kts 336°
2026-04-30 21:49 36.16116 24.80000 26653 ft 413 kts 336°
2026-04-30 21:50 36.18808 24.78723 27070 ft 416 kts 336°
2026-04-30 21:50 36.21520 24.77435 27475 ft 419 kts 336°
2026-04-30 21:50 36.24259 24.76133 27887 ft 421 kts 336°
2026-04-30 21:50 36.27011 24.74824 28286 ft 424 kts 336°
2026-04-30 21:51 36.29770 24.73510 28663 ft 427 kts 336°
2026-04-30 21:51 36.32552 24.72185 29037 ft 429 kts 336°
2026-04-30 21:51 36.35346 24.70853 29394 ft 431 kts 336°
2026-04-30 21:51 36.38157 24.69512 29759 ft 434 kts 336°
2026-04-30 21:52 36.40979 24.68164 30101 ft 436 kts 336°
2026-04-30 21:52 36.43816 24.66808 30448 ft 437 kts 336°
2026-04-30 21:52 36.46621 24.65467 30810 ft 438 kts 336°
2026-04-30 21:52 36.49505 24.64087 31166 ft 439 kts 336°
2026-04-30 21:53 36.52315 24.62741 31607 ft 437 kts 336°
2026-04-30 21:53 36.55140 24.61388 31757 ft 434 kts 336°
2026-04-30 21:53 36.57958 24.60036 31875 ft 432 kts 336°
2026-04-30 21:53 36.60760 24.58690 31977 ft 432 kts 336°
2026-04-30 21:54 36.66361 24.55996 31993 ft 431 kts 336°
2026-04-30 21:54 36.71952 24.53304 31996 ft 431 kts 336°
2026-04-30 21:55 36.77710 24.51148 31995 ft 434 kts 345°
2026-04-30 21:55 36.83612 24.49563 31996 ft 433 kts 344°
2026-04-30 21:56 36.89501 24.47956 31994 ft 433 kts 344°
2026-04-30 21:56 36.95384 24.46353 31994 ft 433 kts 344°
2026-04-30 21:57 37.01232 24.44760 31999 ft 432 kts 344°
2026-04-30 21:57 37.07112 24.43156 32006 ft 432 kts 344°
2026-04-30 21:58 37.12989 24.41548 32014 ft 432 kts 343°
2026-04-30 21:58 37.18854 24.39933 32013 ft 432 kts 343°
2026-04-30 21:59 37.24746 24.38316 32015 ft 432 kts 343°
2026-04-30 22:00 37.33517 24.35937 32023 ft 431 kts 343°
2026-04-30 22:00 37.42316 24.33540 32030 ft 431 kts 343°
2026-04-30 22:01 37.48180 24.31939 32034 ft 431 kts 343°
2026-04-30 22:01 37.54114 24.30734 32025 ft 437 kts 354°
2026-04-30 22:02 37.60190 24.31868 32034 ft 450 kts 13°
2026-04-30 22:02 37.66119 24.34525 32041 ft 452 kts 14°
2026-04-30 22:03 37.72016 24.37160 32044 ft 453 kts 14°
2026-04-30 22:03 37.77961 24.39824 32050 ft 453 kts 14°
2026-04-30 22:04 37.83922 24.42503 32045 ft 454 kts 14°
2026-04-30 22:05 37.92864 24.46531 32052 ft 455 kts 14°
2026-04-30 22:05 37.98831 24.49224 32056 ft 456 kts 14°
2026-04-30 22:06 38.04889 24.51537 32058 ft 454 kts 11°
2026-04-30 22:06 38.13953 24.54940 32061 ft 455 kts 11°
2026-04-30 22:07 38.20036 24.57231 32066 ft 456 kts 11°
2026-04-30 22:07 38.26126 24.59531 32065 ft 456 kts 11°
2026-04-30 22:08 38.32216 24.61833 32065 ft 456 kts 11°
2026-04-30 22:08 38.38304 24.64139 32066 ft 456 kts 11°
2026-04-30 22:09 38.44361 24.66437 32068 ft 456 kts 11°
2026-04-30 22:09 38.50455 24.68753 32065 ft 456 kts 11°
2026-04-30 22:10 38.56540 24.71070 32060 ft 457 kts 11°
2026-04-30 22:10 38.62632 24.73393 32059 ft 457 kts 11°
2026-04-30 22:11 38.71784 24.76891 32059 ft 458 kts 11°
2026-04-30 22:12 38.77889 24.79230 32057 ft 458 kts 11°
2026-04-30 22:12 38.84001 24.81575 32062 ft 459 kts 11°
2026-04-30 22:13 38.90081 24.83911 32070 ft 459 kts 11°
2026-04-30 22:13 38.96215 24.86271 32071 ft 460 kts 11°
2026-04-30 22:14 39.02357 24.88639 32074 ft 461 kts 11°
2026-04-30 22:14 39.08505 24.91013 32080 ft 462 kts 11°
2026-04-30 22:15 39.14658 24.93397 32087 ft 462 kts 11°
2026-04-30 22:15 39.20820 24.95794 32087 ft 463 kts 11°
2026-04-30 22:16 39.26957 24.98182 32092 ft 463 kts 11°
2026-04-30 22:17 39.39309 25.02998 32100 ft 464 kts 11°
2026-04-30 22:17 39.48589 25.06628 31852 ft 464 kts 11°
2026-04-30 22:18 39.51687 25.07842 31205 ft 466 kts 11°
2026-04-30 22:18 39.57960 25.10300 29465 ft 471 kts 12°
2026-04-30 22:19 39.64115 25.12728 28442 ft 455 kts 12°
2026-04-30 22:19 39.67124 25.13913 27873 ft 449 kts 12°
2026-04-30 22:19 39.73037 25.16241 26753 ft 439 kts 11°
2026-04-30 22:20 39.75904 25.17371 26209 ft 434 kts 11°
2026-04-30 22:20 39.81640 25.19635 25120 ft 426 kts 11°
2026-04-30 22:20 39.84479 25.20755 24544 ft 424 kts 12°
2026-04-30 22:21 39.87297 25.21870 23970 ft 422 kts 12°
2026-04-30 22:21 39.90092 25.22986 23381 ft 420 kts 13°
2026-04-30 22:21 39.92795 25.24430 22835 ft 419 kts 21°
2026-04-30 22:21 39.95333 25.26280 22270 ft 417 kts 26°
2026-04-30 22:22 39.97831 25.28186 21702 ft 414 kts 26°
2026-04-30 22:22 40.00307 25.30062 21148 ft 410 kts 26°
2026-04-30 22:22 40.02766 25.31923 20582 ft 407 kts 26°
2026-04-30 22:22 40.05211 25.33778 20007 ft 405 kts 26°
2026-04-30 22:23 40.07640 25.35624 19436 ft 404 kts 26°
2026-04-30 22:23 40.09240 25.36842 19115 ft 401 kts 26°
2026-04-30 22:23 40.12425 25.39269 18378 ft 398 kts 26°
2026-04-30 22:23 40.14809 25.41089 17804 ft 395 kts 27°
2026-04-30 22:24 40.17172 25.42895 17246 ft 392 kts 27°
2026-04-30 22:24 40.18751 25.44103 16882 ft 389 kts 27°
2026-04-30 22:24 40.21081 25.45885 16307 ft 387 kts 27°
2026-04-30 22:24 40.23389 25.47653 15798 ft 383 kts 27°
2026-04-30 22:25 40.25685 25.49412 15252 ft 380 kts 27°
2026-04-30 22:25 40.27928 25.51132 14738 ft 377 kts 27°
2026-04-30 22:25 40.30185 25.52865 14244 ft 374 kts 27°
2026-04-30 22:25 40.32432 25.54590 13653 ft 372 kts 27°
2026-04-30 22:26 40.36843 25.57982 12633 ft 364 kts 27°
2026-04-30 22:26 40.39018 25.59655 12108 ft 361 kts 27°
2026-04-30 22:26 40.41166 25.61310 11551 ft 358 kts 27°
2026-04-30 22:27 40.43303 25.62960 11126 ft 352 kts 27°
2026-04-30 22:27 40.45415 25.64589 10560 ft 352 kts 27°
2026-04-30 22:27 40.49444 25.67701 10271 ft 323 kts 27°
2026-04-30 22:28 40.53172 25.70589 9920 ft 301 kts 27°
2026-04-30 22:28 40.54967 25.71977 9551 ft 297 kts 27°
2026-04-30 22:29 40.60234 25.76051 8416 ft 287 kts 28°
2026-04-30 22:29 40.61955 25.77385 8019 ft 285 kts 28°
2026-04-30 22:30 40.68644 25.76203 6410 ft 276 kts 304°
2026-04-30 22:31 40.72169 25.70496 5438 ft 263 kts 323°
2026-04-30 22:32 40.76938 25.66985 4400 ft 257 kts 341°
2026-04-30 22:32 40.80283 25.65755 4014 ft 238 kts
2026-04-30 22:33 40.82962 25.69472 3708 ft 198 kts 100°
2026-04-30 22:33 40.81928 25.72519 3561 ft 168 kts 110°
2026-04-30 22:34 40.81542 25.76478 3127 ft 135 kts 78°
2026-04-30 22:35 40.82030 25.78831 2664 ft 130 kts 69°
2026-04-30 22:36 40.83005 25.83123 1902 ft 122 kts 72°
2026-04-30 22:36 40.83174 25.84232 1695 ft 124 kts 76°
2026-04-30 22:37 40.83684 25.87571 1026 ft 126 kts 70°
2026-04-30 22:37 40.83923 25.88664 863 ft 121 kts 68°
2026-04-30 22:37 40.84446 25.90839 663 ft 123 kts 67°
2026-04-30 22:38 40.84927 25.92951 276 ft 115 kts 62°
2026-04-30 22:38 40.85412 25.94950 33 ft 110 kts 61°
2026-04-30 22:39 40.85632 25.95699 28 ft 60 kts 68°
2026-04-30 22:39 40.85735 25.96253 28 ft 6 kts 118°
2026-04-30 22:40 40.85681 25.96081 29 ft 16 kts 257°
2026-04-30 22:41 40.85567 25.95535 27 ft 25 kts 253°
2026-04-30 22:41 40.85459 25.95068 25 ft 26 kts 252°
2026-04-30 22:42 40.85585 25.94621 22 ft 1 kts 320°
2026-04-30 22:43 40.85601 25.94610 21 ft 0 kts 335°